"Sample Date","Sample Time","Sample Value","Units","Flow Rate","Sample Interval","Number Channels","Micron Size 0","Counts/Channel 0","Micron Size 1","Counts/Channel 1","Micron Size 2","Counts/Channel 2","Micron Size 3","Counts/Channel 3","Micron Size 4","Counts/Channel 4","Micron Size 5","Counts/Channel 5","Micron Size 6","Counts/Channel 6","Micron Size 7","Counts/Channel 7","Micron Size 8","Counts/Channel 8","Micron Size 9","Counts/Channel 9","Micron Size 10","Counts/Channel 10","Micron Size 11","Counts/Channel 11","Micron Size 12","Counts/Channel 12","Micron Size 13","Counts/Channel 13","Micron Size 14","Counts/Channel 14","Micron Size 15","Counts/Channel 15","Micron Size 16","Counts/Channel 16","Micron Size 17","Counts/Channel 17","Micron Size 18","Counts/Channel 18","Micron Size 19","Counts/Channel 19","Micron Size 20","Counts/Channel 20","Micron Size 21","Counts/Channel 21","Micron Size 22","Counts/Channel 22","Micron Size 23","Counts/Channel 23","Micron Size 24","Counts/Channel 24","Micron Size 25","Counts/Channel 25","Micron Size 26","Counts/Channel 26","Micron Size 27","Counts/Channel 27","Micron Size 28","Counts/Channel 28","Micron Size 29","Counts/Channel 29","Micron Size 30","Counts/Channel 30","Micron Size 31","Counts/Channel 31"
"04/02/08","03:00:01",14832.000,"cc",28293.242,6.00,6,0.100,13313.000,0.200,570.000,0.300,366.000,0.500,426.000,1.000,157.000,5.000,0
"04/02/08","03:00:07",14926.000,"cc",28353.688,6.00,6,0.100,13410.000,0.200,626.000,0.300,338.000,0.500,398.000,1.000,154.000,5.000,0
"04/02/08","03:00:13",14982.000,"cc",28311.006,6.00,6,0.100,13435.000,0.200,588.000,0.300,376.000,0.500,435.000,1.000,148.000,5.000,0
"04/02/08","03:00:19",15072.000,"cc",28332.940,6.00,6,0.100,13402.000,0.200,671.000,0.300,381.000,0.500,463.000,1.000,155.000,5.000,0
"04/02/08","03:00:25",15172.000,"cc",28324.158,6.00,6,0.100,13584.000,0.200,627.000,0.300,375.000,0.500,429.000,1.000,157.000,5.000,0
"04/02/08","03:00:31",15712.000,"cc",28370.875,6.00,6,0.100,14090.000,0.200,647.000,0.300,344.000,0.500,461.000,1.000,170.000,5.000,0
"04/02/08","03:00:37",15452.000,"cc",28323.941,6.00,6,0.100,13842.000,0.200,619.000,0.300,373.000,0.500,462.000,1.000,156.000,5.000,0
"04/02/08","03:00:43",15645.000,"cc",28323.297,6.00,6,0.100,14122.000,0.200,602.000,0.300,320.000,0.500,445.000,1.000,156.000,5.000,0
"04/02/08","03:00:49",15477.000,"cc",28342.262,6.00,6,0.100,13907.000,0.200,593.000,0.300,362.000,0.500,439.000,1.000,176.000,5.000,0
"04/02/08","03:00:55",15582.000,"cc",28263.760,6.00,6,0.100,14029.000,0.200,597.000,0.300,327.000,0.500,465.000,1.000,164.000,5.000,0
"04/02/08","03:01:01",15595.000,"cc",28280.797,6.00,6,0.100,14153.000,0.200,608.000,0.300,322.000,0.500,348.000,1.000,164.000,5.000,0
"04/02/08","03:01:07",15488.000,"cc",28300.160,6.00,6,0.100,13949.000,0.200,562.000,0.300,358.000,0.500,447.000,1.000,172.000,5.000,0
"04/02/08","03:01:13",15784.000,"cc",28327.690,6.00,6,0.100,14185.000,0.200,607.000,0.300,381.000,0.500,435.000,1.000,176.000,5.000,0
"04/02/08","03:01:19",15852.000,"cc",28339.053,6.00,6,0.100,14107.000,0.200,674.000,0.300,419.000,0.500,457.000,1.000,195.000,5.000,0
"04/02/08","03:01:25",15990.000,"cc",28197.744,6.00,6,0.100,14253.000,0.200,701.000,0.300,391.000,0.500,465.000,1.000,180.000,5.000,0
"04/02/08","03:01:31",16127.000,"cc",28269.273,6.00,6,0.100,14463.000,0.200,674.000,0.300,372.000,0.500,460.000,1.000,158.000,5.000,0
"04/02/08","03:01:37",16128.000,"cc",28335.117,6.00,6,0.100,14470.000,0.200,653.000,0.300,357.000,0.500,480.000,1.000,168.000,5.000,0
"04/02/08","03:01:43",16005.000,"cc",28367.084,6.00,6,0.100,14267.000,0.200,705.000,0.300,369.000,0.500,472.000,1.000,192.000,5.000,0
"04/02/08","03:01:49",16220.000,"cc",28306.344,6.00,6,0.100,14491.000,0.200,675.000,0.300,399.000,0.500,458.000,1.000,197.000,5.000,0
"04/02/08","03:01:55",16208.000,"cc",28359.305,6.00,6,0.100,14524.000,0.200,649.000,0.300,379.000,0.500,475.000,1.000,181.000,5.000,0
"04/02/08","03:02:01",15748.000,"cc",28293.834,6.00,6,0.100,14169.000,0.200,646.000,0.300,343.000,0.500,434.000,1.000,156.000,5.000,0
"04/02/08","03:02:07",15747.000,"cc",28334.898,6.00,6,0.100,14136.000,0.200,633.000,0.300,364.000,0.500,439.000,1.000,175.000,5.000,0
"04/02/08","03:02:13",15823.000,"cc",28342.635,6.00,6,0.100,14249.000,0.200,558.000,0.300,375.000,0.500,449.000,1.000,192.000,5.000,0
"04/02/08","03:02:19",16172.000,"cc",28296.494,6.00,6,0.100,14525.000,0.200,652.000,0.300,398.000,0.500,443.000,1.000,154.000,5.000,0
"04/02/08","03:02:25",15921.000,"cc",28263.914,6.00,6,0.100,14252.000,0.200,662.000,0.300,378.000,0.500,469.000,1.000,160.000,5.000,0
"04/02/08","03:02:31",16247.000,"cc",28321.676,6.00,6,0.100,14507.000,0.200,668.000,0.300,408.000,0.500,460.000,1.000,204.000,5.000,0
"04/02/08","03:02:37",15639.000,"cc",28359.137,6.00,6,0.100,13927.000,0.200,692.000,0.300,365.000,0.500,473.000,1.000,182.000,5.000,0
"04/02/08","03:02:43",15735.000,"cc",28358.969,6.00,6,0.100,14116.000,0.200,605.000,0.300,368.000,0.500,454.000,1.000,192.000,5.000,0
"04/02/08","03:02:49",15368.000,"cc",28332.217,6.00,6,0.100,13746.000,0.200,624.000,0.300,375.000,0.500,458.000,1.000,165.000,5.000,0
"04/02/08","03:02:55",15486.000,"cc",28303.094,6.00,6,0.100,13837.000,0.200,628.000,0.300,399.000,0.500,453.000,1.000,169.000,5.000,0
"04/02/08","03:03:01",15758.000,"cc",28348.330,6.00,6,0.100,14038.000,0.200,683.000,0.300,378.000,0.500,479.000,1.000,180.000,5.000,0
"04/02/08","03:03:07",15667.000,"cc",28278.797,6.00,6,0.100,13905.000,0.200,705.000,0.300,401.000,0.500,475.000,1.000,181.000,5.000,0
"04/02/08","03:03:13",15788.000,"cc",28309.316,6.00,6,0.100,14169.000,0.200,628.000,0.300,391.000,0.500,433.000,1.000,167.000,5.000,0
"04/02/08","03:03:19",15708.000,"cc",28304.580,6.00,6,0.100,14075.000,0.200,629.000,0.300,382.000,0.500,466.000,1.000,156.000,5.000,0
"04/02/08","03:03:25",15402.000,"cc",28365.398,6.00,6,0.100,13830.000,0.200,624.000,0.300,338.000,0.500,417.000,1.000,193.000,5.000,0
"04/02/08","03:03:31",15333.000,"cc",28291.641,6.00,6,0.100,13787.000,0.200,616.000,0.300,332.000,0.500,414.000,1.000,184.000,5.000,0
"04/02/08","03:03:37",15506.000,"cc",28331.273,6.00,6,0.100,13826.000,0.200,631.000,0.300,376.000,0.500,485.000,1.000,188.000,5.000,0
"04/02/08","03:03:43",15016.000,"cc",28321.430,6.00,6,0.100,13452.000,0.200,595.000,0.300,372.000,0.500,435.000,1.000,162.000,5.000,0
"04/02/08","03:03:49",14969.000,"cc",28277.723,6.00,6,0.100,13360.000,0.200,626.000,0.300,354.000,0.500,454.000,1.000,175.000,5.000,0
"04/02/08","03:03:55",15461.000,"cc",28327.924,6.00,6,0.100,13846.000,0.200,627.000,0.300,351.000,0.500,470.000,1.000,167.000,5.000,0
"04/02/08","03:04:01",15454.000,"cc",28321.932,6.00,6,0.100,13669.000,0.200,697.000,0.300,406.000,0.500,502.000,1.000,180.000,5.000,0
"04/02/08","03:04:07",15180.000,"cc",28227.205,6.00,6,0.100,13512.000,0.200,621.000,0.300,397.000,0.500,468.000,1.000,182.000,5.000,0
"04/02/08","03:04:13",15438.000,"cc",28327.106,6.00,6,0.100,13833.000,0.200,652.000,0.300,349.000,0.500,438.000,1.000,166.000,5.000,0
"04/02/08","03:04:19",15364.000,"cc",28433.529,6.00,6,0.100,13769.000,0.200,605.000,0.300,399.000,0.500,421.000,1.000,170.000,5.000,0
"04/02/08","03:04:25",15362.000,"cc",28284.996,6.00,6,0.100,13776.000,0.200,643.000,0.300,378.000,0.500,393.000,1.000,172.000,5.000,0
"04/02/08","03:04:31",15298.000,"cc",28215.606,6.00,6,0.100,13702.000,0.200,623.000,0.300,359.000,0.500,440.000,1.000,174.000,5.000,0
"04/02/08","03:04:37",14866.000,"cc",28364.010,6.00,6,0.100,13415.000,0.200,559.000,0.300,318.000,0.500,415.000,1.000,159.000,5.000,0
"04/02/08","03:04:43",15433.000,"cc",28332.309,6.00,6,0.100,13842.000,0.200,628.000,0.300,351.000,0.500,438.000,1.000,174.000,5.000,0
"04/02/08","03:04:49",15224.000,"cc",28302.885,6.00,6,0.100,13682.000,0.200,616.000,0.300,332.000,0.500,440.000,1.000,154.000,5.000,0
"04/02/08","03:04:55",15291.000,"cc",28255.877,6.00,6,0.100,13727.000,0.200,677.000,0.300,332.000,0.500,404.000,1.000,151.000,5.000,0
"04/02/08","03:05:01",15547.000,"cc",28363.365,6.00,6,0.100,13850.000,0.200,675.000,0.300,392.000,0.500,463.000,1.000,167.000,5.000,0
"04/02/08","03:05:07",15705.000,"cc",28352.742,6.00,6,0.100,13998.000,0.200,683.000,0.300,376.000,0.500,463.000,1.000,185.000,5.000,0
"04/02/08","03:05:13",15791.000,"cc",28291.000,6.00,6,0.100,14150.000,0.200,630.000,0.300,388.000,0.500,457.000,1.000,166.000,5.000,0
"04/02/08","03:05:19",15701.000,"cc",28351.815,6.00,6,0.100,14045.000,0.200,652.000,0.300,369.000,0.500,456.000,1.000,179.000,5.000,0
"04/02/08","03:05:25",15696.000,"cc",28298.084,6.00,6,0.100,14059.000,0.200,620.000,0.300,389.000,0.500,455.000,1.000,173.000,5.000,0
"04/02/08","03:05:31",15782.000,"cc",28336.385,6.00,6,0.100,14161.000,0.200,639.000,0.300,369.000,0.500,446.000,1.000,167.000,5.000,0
"04/02/08","03:05:37",15683.000,"cc",28297.729,6.00,6,0.100,14142.000,0.200,600.000,0.300,357.000,0.500,423.000,1.000,161.000,5.000,0
"04/02/08","03:05:43",15962.000,"cc",28356.816,6.00,6,0.100,14335.000,0.200,655.000,0.300,362.000,0.500,439.000,1.000,171.000,5.000,0
"04/02/08","03:05:49",15815.000,"cc",28277.652,6.00,6,0.100,14216.000,0.200,651.000,0.300,362.000,0.500,429.000,1.000,157.000,5.000,0
"04/02/08","03:05:55",15562.000,"cc",28293.139,6.00,6,0.100,14017.000,0.200,590.000,0.300,379.000,0.500,420.000,1.000,156.000,5.000,0
"04/02/08","03:06:01",15806.000,"cc",28299.684,6.00,6,0.100,14200.000,0.200,612.000,0.300,390.000,0.500,420.000,1.000,184.000,5.000,0
"04/02/08","03:06:07",15648.000,"cc",28259.891,6.00,6,0.100,13907.000,0.200,705.000,0.300,376.000,0.500,465.000,1.000,195.000,5.000,0
"04/02/08","03:06:13",15616.000,"cc",28305.221,6.00,6,0.100,13914.000,0.200,676.000,0.300,406.000,0.500,443.000,1.000,177.000,5.000,0
"04/02/08","03:06:19",16073.000,"cc",28278.209,6.00,6,0.100,14338.000,0.200,649.000,0.300,410.000,0.500,484.000,1.000,192.000,5.000,0
"04/02/08","03:06:25",16025.000,"cc",28368.207,6.00,6,0.100,14331.000,0.200,652.000,0.300,397.000,0.500,479.000,1.000,166.000,5.000,0
"04/02/08","03:06:31",15834.000,"cc",28327.436,6.00,6,0.100,14127.000,0.200,652.000,0.300,388.000,0.500,477.000,1.000,190.000,5.000,0
"04/02/08","03:06:37",16086.000,"cc",28354.098,6.00,6,0.100,14380.000,0.200,681.000,0.300,377.000,0.500,442.000,1.000,206.000,5.000,0
"04/02/08","03:06:43",16027.000,"cc",28365.678,6.00,6,0.100,14387.000,0.200,615.000,0.300,400.000,0.500,444.000,1.000,181.000,5.000,0
"04/02/08","03:06:49",15787.000,"cc",28307.879,6.00,6,0.100,14171.000,0.200,619.000,0.300,379.000,0.500,477.000,1.000,141.000,5.000,0
"04/02/08","03:06:55",16070.000,"cc",28305.357,6.00,6,0.100,14391.000,0.200,629.000,0.300,374.000,0.500,493.000,1.000,183.000,5.000,0
"04/02/08","03:07:01",16194.000,"cc",28329.440,6.00,6,0.100,14521.000,0.200,652.000,0.300,364.000,0.500,455.000,1.000,202.000,5.000,0
"04/02/08","03:07:07",16291.000,"cc",28278.565,6.00,6,0.100,14548.000,0.200,680.000,0.300,402.000,0.500,460.000,1.000,201.000,5.000,0
"04/02/08","03:07:13",16054.000,"cc",28333.805,6.00,6,0.100,14282.000,0.200,675.000,0.300,409.000,0.500,495.000,1.000,193.000,5.000,0
"04/02/08","03:07:19",16115.000,"cc",28320.672,6.00,6,0.100,14369.000,0.200,710.000,0.300,369.000,0.500,474.000,1.000,193.000,5.000,0
"04/02/08","03:07:25",16243.000,"cc",28264.801,6.00,6,0.100,14505.000,0.200,676.000,0.300,396.000,0.500,493.000,1.000,173.000,5.000,0
"04/02/08","03:07:31",16171.000,"cc",28373.285,6.00,6,0.100,14486.000,0.200,665.000,0.300,362.000,0.500,482.000,1.000,176.000,5.000,0
"04/02/08","03:07:37",16481.000,"cc",28269.246,6.00,6,0.100,14735.000,0.200,668.000,0.300,406.000,0.500,487.000,1.000,185.000,5.000,0
"04/02/08","03:07:43",16541.000,"cc",28352.566,6.00,6,0.100,14838.000,0.200,656.000,0.300,408.000,0.500,444.000,1.000,195.000,5.000,0
"04/02/08","03:07:49",16360.000,"cc",28333.387,6.00,6,0.100,14652.000,0.200,625.000,0.300,387.000,0.500,488.000,1.000,208.000,5.000,0
"04/02/08","03:07:55",16144.000,"cc",28289.127,6.00,6,0.100,14407.000,0.200,665.000,0.300,397.000,0.500,494.000,1.000,181.000,5.000,0
"04/02/08","03:08:01",16353.000,"cc",28274.801,6.00,6,0.100,14597.000,0.200,662.000,0.300,422.000,0.500,467.000,1.000,205.000,5.000,0
"04/02/08","03:08:07",16447.000,"cc",28348.412,6.00,6,0.100,14681.000,0.200,668.000,0.300,408.000,0.500,502.000,1.000,188.000,5.000,0
"04/02/08","03:08:13",16097.000,"cc",28365.416,6.00,6,0.100,14375.000,0.200,676.000,0.300,395.000,0.500,456.000,1.000,195.000,5.000,0
"04/02/08","03:08:19",15924.000,"cc",28267.652,6.00,6,0.100,14262.000,0.200,626.000,0.300,395.000,0.500,466.000,1.000,175.000,5.000,0
"04/02/08","03:08:25",16181.000,"cc",28306.061,6.00,6,0.100,14404.000,0.200,678.000,0.300,397.000,0.500,495.000,1.000,207.000,5.000,0
"04/02/08","03:08:31",16220.000,"cc",28322.514,6.00,6,0.100,14415.000,0.200,645.000,0.300,461.000,0.500,514.000,1.000,185.000,5.000,0
"04/02/08","03:08:37",15733.000,"cc",28282.188,6.00,6,0.100,13915.000,0.200,716.000,0.300,428.000,0.500,490.000,1.000,184.000,5.000,0
"04/02/08","03:08:43",16126.000,"cc",28345.375,6.00,6,0.100,14420.000,0.200,694.000,0.300,384.000,0.500,447.000,1.000,181.000,5.000,0
"04/02/08","03:08:49",15871.000,"cc",28313.746,6.00,6,0.100,14104.000,0.200,716.000,0.300,379.000,0.500,491.000,1.000,181.000,5.000,0
"04/02/08","03:08:55",16021.000,"cc",28271.356,6.00,6,0.100,14323.000,0.200,665.000,0.300,394.000,0.500,459.000,1.000,180.000,5.000,0
"04/02/08","03:09:01",16045.000,"cc",28274.379,6.00,6,0.100,14465.000,0.200,616.000,0.300,396.000,0.500,394.000,1.000,174.000,5.000,0
"04/02/08","03:09:07",15767.000,"cc",28334.018,6.00,6,0.100,14101.000,0.200,646.000,0.300,364.000,0.500,459.000,1.000,197.000,5.000,0
"04/02/08","03:09:13",15859.000,"cc",28376.162,6.00,6,0.100,14206.000,0.200,648.000,0.300,392.000,0.500,456.000,1.000,157.000,5.000,0
"04/02/08","03:09:19",15631.000,"cc",28318.561,6.00,6,0.100,13972.000,0.200,625.000,0.300,372.000,0.500,472.000,1.000,190.000,5.000,0
"04/02/08","03:09:25",15493.000,"cc",28304.809,6.00,6,0.100,13859.000,0.200,636.000,0.300,373.000,0.500,451.000,1.000,173.000,5.000,1.000
"04/02/08","03:09:31",15187.000,"cc",28285.631,6.00,6,0.100,13537.000,0.200,619.000,0.300,388.000,0.500,469.000,1.000,174.000,5.000,0
"04/02/08","03:09:37",15225.000,"cc",28302.119,6.00,6,0.100,13618.000,0.200,648.000,0.300,385.000,0.500,427.000,1.000,147.000,5.000,0
"04/02/08","03:09:43",15341.000,"cc",28312.613,6.00,6,0.100,13771.000,0.200,629.000,0.300,342.000,0.500,426.000,1.000,173.000,5.000,0
"04/02/08","03:09:49",15145.000,"cc",28320.799,6.00,6,0.100,13629.000,0.200,626.000,0.300,312.000,0.500,433.000,1.000,145.000,5.000,0
"04/02/08","03:09:55",15311.000,"cc",28330.088,6.00,6,0.100,13733.000,0.200,609.000,0.300,350.000,0.500,452.000,1.000,167.000,5.000,0
"04/02/08","03:10:01",15418.000,"cc",28333.031,6.00,6,0.100,13726.000,0.200,659.000,0.300,393.000,0.500,460.000,1.000,180.000,5.000,0
"04/02/08","03:10:07",15556.000,"cc",28339.945,6.00,6,0.100,13825.000,0.200,664.000,0.300,416.000,0.500,488.000,1.000,163.000,5.000,0
"04/02/08","03:10:13",15128.000,"cc",28313.920,6.00,6,0.100,13444.000,0.200,636.000,0.300,416.000,0.500,475.000,1.000,157.000,5.000,0
"04/02/08","03:10:19",15523.000,"cc",28241.080,6.00,6,0.100,13794.000,0.200,701.000,0.300,413.000,0.500,441.000,1.000,174.000,5.000,0
"04/02/08","03:10:25",15393.000,"cc",28402.963,6.00,6,0.100,13622.000,0.200,643.000,0.300,447.000,0.500,508.000,1.000,173.000,5.000,0
"04/02/08","03:10:31",15319.000,"cc",28308.758,6.00,6,0.100,13632.000,0.200,660.000,0.300,394.000,0.500,446.000,1.000,187.000,5.000,0
"04/02/08","03:10:37",15503.000,"cc",28342.244,6.00,6,0.100,13806.000,0.200,678.000,0.300,381.000,0.500,461.000,1.000,177.000,5.000,0
"04/02/08","03:10:43",15361.000,"cc",28334.018,6.00,6,0.100,13647.000,0.200,659.000,0.300,424.000,0.500,471.000,1.000,160.000,5.000,0
"04/02/08","03:10:49",15296.000,"cc",28284.832,6.00,6,0.100,13604.000,0.200,672.000,0.300,383.000,0.500,471.000,1.000,166.000,5.000,0
"04/02/08","03:10:55",15341.000,"cc",28258.086,6.00,6,0.100,13697.000,0.200,599.000,0.300,376.000,0.500,489.000,1.000,180.000,5.000,0
"04/02/08","03:11:01",15126.000,"cc",28370.229,6.00,6,0.100,13499.000,0.200,641.000,0.300,344.000,0.500,483.000,1.000,159.000,5.000,0
"04/02/08","03:11:07",14979.000,"cc",28333.336,6.00,6,0.100,13436.000,0.200,617.000,0.300,366.000,0.500,420.000,1.000,140.000,5.000,0
"04/02/08","03:11:13",14988.000,"cc",28295.145,6.00,6,0.100,13394.000,0.200,672.000,0.300,359.000,0.500,401.000,1.000,162.000,5.000,0
"04/02/08","03:11:19",15037.000,"cc",28229.977,6.00,6,0.100,13465.000,0.200,628.000,0.300,336.000,0.500,454.000,1.000,154.000,5.000,0
"04/02/08","03:11:25",15343.000,"cc",28344.322,6.00,6,0.100,13707.000,0.200,645.000,0.300,378.000,0.500,451.000,1.000,162.000,5.000,0
"04/02/08","03:11:31",15203.000,"cc",28351.961,6.00,6,0.100,13518.000,0.200,653.000,0.300,375.000,0.500,494.000,1.000,163.000,5.000,0
"04/02/08","03:11:37",15121.000,"cc",28340.270,6.00,6,0.100,13436.000,0.200,626.000,0.300,396.000,0.500,495.000,1.000,168.000,5.000,0
"04/02/08","03:11:43",15297.000,"cc",28306.934,6.00,6,0.100,13556.000,0.200,677.000,0.300,377.000,0.500,492.000,1.000,195.000,5.000,0
"04/02/08","03:11:49",15374.000,"cc",28382.369,6.00,6,0.100,13714.000,0.200,642.000,0.300,365.000,0.500,459.000,1.000,194.000,5.000,0
"04/02/08","03:11:55",15234.000,"cc",28310.326,6.00,6,0.100,13546.000,0.200,644.000,0.300,406.000,0.500,462.000,1.000,176.000,5.000,0
"04/02/08","03:12:01",15080.000,"cc",28269.647,6.00,6,0.100,13450.000,0.200,674.000,0.300,357.000,0.500,435.000,1.000,164.000,5.000,0
"04/02/08","03:12:07",15135.000,"cc",28341.670,6.00,6,0.100,13513.000,0.200,648.000,0.300,374.000,0.500,430.000,1.000,170.000,5.000,0
"04/02/08","03:12:13",15370.000,"cc",28321.441,6.00,6,0.100,13692.000,0.200,655.000,0.300,361.000,0.500,481.000,1.000,181.000,5.000,0
"04/02/08","03:12:19",15331.000,"cc",28316.863,6.00,6,0.100,13636.000,0.200,672.000,0.300,382.000,0.500,450.000,1.000,191.000,5.000,0
"04/02/08","03:12:25",15362.000,"cc",28273.473,6.00,6,0.100,13744.000,0.200,637.000,0.300,382.000,0.500,420.000,1.000,179.000,5.000,0
"04/02/08","03:12:31",15370.000,"cc",28275.068,6.00,6,0.100,13698.000,0.200,670.000,0.300,385.000,0.500,458.000,1.000,159.000,5.000,0
"04/02/08","03:12:37",15334.000,"cc",28313.832,6.00,6,0.100,13672.000,0.200,650.000,0.300,427.000,0.500,442.000,1.000,143.000,5.000,0
"04/02/08","03:12:43",15664.000,"cc",28377.065,6.00,6,0.100,14030.000,0.200,603.000,0.300,399.000,0.500,460.000,1.000,172.000,5.000,0
"04/02/08","03:12:49",15395.000,"cc",28277.891,6.00,6,0.100,13646.000,0.200,718.000,0.300,394.000,0.500,456.000,1.000,181.000,5.000,0
"04/02/08","03:12:55",15046.000,"cc",28212.201,6.00,6,0.100,13477.000,0.200,637.000,0.300,354.000,0.500,441.000,1.000,137.000,5.000,0
"04/02/08","03:13:01",14955.000,"cc",28249.209,6.00,6,0.100,13470.000,0.200,585.000,0.300,346.000,0.500,419.000,1.000,135.000,5.000,0
"04/02/08","03:13:07",14901.000,"cc",28363.990,6.00,6,0.100,13376.000,0.200,608.000,0.300,359.000,0.500,410.000,1.000,148.000,5.000,0
"04/02/08","03:13:13",15149.000,"cc",28393.863,6.00,6,0.100,13593.000,0.200,606.000,0.300,372.000,0.500,415.000,1.000,162.000,5.000,1.000
"04/02/08","03:13:19",15198.000,"cc",28354.666,6.00,6,0.100,13651.000,0.200,572.000,0.300,353.000,0.500,450.000,1.000,172.000,5.000,0
"04/02/08","03:13:25",15435.000,"cc",28307.334,6.00,6,0.100,13838.000,0.200,650.000,0.300,355.000,0.500,432.000,1.000,160.000,5.000,0
"04/02/08","03:13:31",15185.000,"cc",28383.272,6.00,6,0.100,13514.000,0.200,668.000,0.300,406.000,0.500,429.000,1.000,168.000,5.000,0
"04/02/08","03:13:37",15438.000,"cc",28271.254,6.00,6,0.100,13675.000,0.200,698.000,0.300,414.000,0.500,491.000,1.000,160.000,5.000,0
"04/02/08","03:13:43",15660.000,"cc",28265.133,6.00,6,0.100,13878.000,0.200,682.000,0.300,415.000,0.500,514.000,1.000,171.000,5.000,0
"04/02/08","03:13:49",15764.000,"cc",28253.227,6.00,6,0.100,14070.000,0.200,705.000,0.300,397.000,0.500,419.000,1.000,173.000,5.000,0
"04/02/08","03:13:55",26466.000,"cc",28375.025,6.00,6,0.100,24041.000,0.200,1370.000,0.300,390.000,0.500,470.000,1.000,195.000,5.000,0
"04/02/08","03:14:01",31697.000,"cc",28383.061,6.00,6,0.100,28474.000,0.200,1944.000,0.300,555.000,0.500,534.000,1.000,190.000,5.000,0
"04/02/08","03:14:07",37447.000,"cc",28395.576,6.00,6,0.100,34126.000,0.200,2207.000,0.300,460.000,0.500,466.000,1.000,188.000,5.000,0
"04/02/08","03:14:13",147829.000,"cc",28276.967,6.00,6,0.100,135294.000,0.200,11001.000,0.300,738.000,0.500,585.000,1.000,211.000,5.000,0
"04/02/08","03:14:19",165601.000,"cc",28258.531,6.00,6,0.100,151302.000,0.200,12933.000,0.300,706.000,0.500,477.000,1.000,183.000,5.000,0
"04/02/08","03:14:25",165013.000,"cc",28234.070,6.00,6,0.100,151296.000,0.200,12313.000,0.300,676.000,0.500,534.000,1.000,194.000,5.000,0
"04/02/08","03:14:31",222928.000,"cc",28349.363,6.00,6,0.100,203626.000,0.200,17737.000,0.300,861.000,0.500,523.000,1.000,181.000,5.000,0
"04/02/08","03:14:37",258970.000,"cc",28362.449,6.00,6,0.100,234297.000,0.200,22584.000,0.300,1211.000,0.500,673.000,1.000,205.000,5.000,0
"04/02/08","03:14:43",110562.000,"cc",28324.049,6.00,6,0.100,101491.000,0.200,7808.000,0.300,598.000,0.500,490.000,1.000,175.000,5.000,0
"04/02/08","03:14:49",126176.000,"cc",28285.193,6.00,6,0.100,115607.000,0.200,9298.000,0.300,623.000,0.500,475.000,1.000,173.000,5.000,0
"04/02/08","03:14:55",163800.000,"cc",28315.508,6.00,6,0.100,149899.000,0.200,12563.000,0.300,675.000,0.500,487.000,1.000,176.000,5.000,0
"04/02/08","03:15:01",270585.000,"cc",28357.422,6.00,6,0.100,244158.000,0.200,24747.000,0.300,1056.000,0.500,470.000,1.000,154.000,5.000,0
"04/02/08","03:15:07",314801.000,"cc",28286.180,6.00,6,0.100,283500.000,0.200,29518.000,0.300,1127.000,0.500,445.000,1.000,211.000,5.000,0
"04/02/08","03:15:13",218073.000,"cc",28323.424,6.00,6,0.100,178408.000,0.200,37525.000,0.300,1419.000,0.500,541.000,1.000,180.000,5.000,0
"04/02/08","03:15:19",279575.000,"cc",28373.621,6.00,6,0.100,243046.000,0.200,34271.000,0.300,1452.000,0.500,586.000,1.000,220.000,5.000,0
"04/02/08","03:15:25",269629.000,"cc",28342.645,6.00,6,0.100,244882.000,0.200,22989.000,0.300,1019.000,0.500,573.000,1.000,166.000,5.000,0
"04/02/08","03:15:31",196389.000,"cc",28302.977,6.00,6,0.100,178843.000,0.200,15986.000,0.300,874.000,0.500,498.000,1.000,188.000,5.000,0
"04/02/08","03:15:37",174153.000,"cc",28292.615,6.00,6,0.100,158945.000,0.200,13771.000,0.300,763.000,0.500,475.000,1.000,199.000,5.000,0
"04/02/08","03:15:43",193285.000,"cc",28337.973,6.00,6,0.100,175825.000,0.200,15896.000,0.300,851.000,0.500,529.000,1.000,184.000,5.000,0
"04/02/08","03:15:49",323700.000,"cc",28289.508,6.00,6,0.100,279077.000,0.200,42100.000,0.300,1693.000,0.500,626.000,1.000,204.000,5.000,0
"04/02/08","03:15:55",253366.000,"cc",28392.598,6.00,6,0.100,230119.000,0.200,21476.000,0.300,976.000,0.500,596.000,1.000,199.000,5.000,0
"04/02/08","03:16:01",264538.000,"cc",28352.826,6.00,6,0.100,228079.000,0.200,34371.000,0.300,1333.000,0.500,545.000,1.000,210.000,5.000,0
"04/02/08","03:16:07",285066.000,"cc",28257.342,6.00,6,0.100,248393.000,0.200,34596.000,0.300,1325.000,0.500,559.000,1.000,193.000,5.000,0
"04/02/08","03:16:13",212504.000,"cc",28258.232,6.00,6,0.100,183226.000,0.200,27594.000,0.300,1032.000,0.500,479.000,1.000,173.000,5.000,0
"04/02/08","03:16:19",300320.000,"cc",28314.723,6.00,6,0.100,261573.000,0.200,36737.000,0.300,1368.000,0.500,478.000,1.000,164.000,5.000,0
"04/02/08","03:16:25",242639.000,"cc",28322.315,6.00,6,0.100,201566.000,0.200,38966.000,0.300,1391.000,0.500,517.000,1.000,199.000,5.000,0
"04/02/08","03:16:31",249656.000,"cc",28382.764,6.00,6,0.100,217519.000,0.200,30043.000,0.300,1298.000,0.500,586.000,1.000,210.000,5.000,0
"04/02/08","03:16:37",261223.000,"cc",28302.547,6.00,6,0.100,227713.000,0.200,31377.000,0.300,1336.000,0.500,579.000,1.000,218.000,5.000,0